User: anonymous   Login
Location: La B�doule
(43.2468°N, 5.5934°E)
Time: 02:24:34
(UTC+00:00)
Language:

CZ-2C R/B - Orbit

View from above orbital plane
View from above orbital plane
View from above satellite
View from above satellite

Ground track
Ground track

The orbit data is extracted from the following two-line orbital elements,

1 28222U 04012C   20221.46423748 +.00000416 +00000-0 +28859-4 0  9995
2 28222 097.6809 184.1586 0046188 210.5451 261.9684 15.10433117893849
Epoch (UTC): 08 August 2020 11:08:30
Eccentricity: 0.0046188
inclination: 97.6809°
perigee height: 503 km
apogee height: 567 km
right ascension of ascending node: 184.1586°
argument of perigee: 210.5451°
revolutions per day: 15.10433117
mean anomaly at epoch: 261.9684°
orbit number at epoch: 89384

The dashed part of the orbit path shows where the satellite is in the earth's shadow,  

DLR